星链-2582 (STARLINK-2582 )

导读 | 豆包AI

STARLINK-2582是美国太空探索技术公司SpaceX于2021年5月9日发射的星链项目卫星,属于星链低轨互联网星座的组成部分。该项目旨在通过大规模低轨道卫星部署,为全球尤其是偏远地区提供高速低延迟互联网接入服务,同时也可支持军事通信和应急响应,不过星链星座的快速扩张也引发了太空安全等方面的争议。

基本信息
目录编号:
48460
目录名称:
STARLINK-2582
国际标识:
2021-040AJ
轨道中心:
EARTH
卫星名称:
星链-2582
卫星全名:
星链-2582 (STARLINK-2582 )
卫星状态:
在轨 (已飞行1770 天)
发射日期:
2021-05-09 UTC
国别 :
美国 (US)
星等 :
--
轨道信息
数据来源 国际轨道数据
星历时间: 2026-03-14T15:40:19+0800
8小时前
查看轨道信息
半长轴: 6776.477km
偏心率: 0.0004577
轨道倾角: 53.058°
近地点辐角 18.617°
升交点赤经 108.021°
平近点角 341.501°
近地点: 395.238km
远地点: 401.442km
周期: 92.526分钟
每日圈数: 15.563128
详细信息
固有亮度:
5
最大亮度:
2.5
卫星平台:
Starlink V1.0
覆盖范围:
全球
运营商:
太空探索技术公司
运营商所在国:
美国
制造商(研发单位):
太空探索技术公司
制造商所在国:
美国
使用方式:
暂无
卫星简介
星链(Starlink)计划是由太空探索技术公司(SpaceX)提出的一个巨型低轨卫星互联网星座项目,计划在2019年至2024年间在太空搭建由约1.2万颗卫星组成的“星链”网络,其中1584颗将部署在地球上空550千米处的近地轨道,并从2020年开始工作。该卫星仍在工作。
2D轨道图
3D轨道图
轨道高度分析图
轨道倾角分析图
轨道综合分析图
查看轨道综合分析图